Location: Crane Creek
(37.9716°N, 119.9816°W)
Time: 20:42:28
(UTC+00:00)

Cosmos 1844 Rocket - Visible Passes

Search period start: 13 September 2024 00:00
Search period end: 23 September 2024 00:00
Orbit: 822 x 845 km, 71.0° (Epoch: 13 September)

Date Brightness Start Highest point End Pass type
(mag) Time Alt. Az. Time Alt. Az. Time Alt. Az.
13 Sep 5.0 02:51:36 10° NW 02:56:11 26° WSW 03:00:46 10° SSW visible
14 Sep 5.0 02:34:00 10° NW 02:38:47 29° WSW 02:43:33 10° SSW visible
22 Sep 4.2 13:18:10 10° S 13:23:24 42° ESE 13:28:40 10° NE visible
